Yuma, AZ

1:27 AM MST on February 09, 2016 (GMT -0700)
Yuma Marine Corps Air Station

Weather History for KNYL - March, 2013

Change the Weather History Date:

Wednesday, March 6, 2013

  Actual Average Record
Temperature  
Mean Temperature 67 °F 66 °F  
Max Temperature 78 °F 78 °F 94 °F (1972)
Min Temperature 56 °F 53 °F 37 °F (1896)
Degree Days  
Heating Degree Days 0 2  
Month to date heating degree days 0 13  
Since 1 July heating degree days 689 636  
Cooling Degree Days 2 3  
Month to date cooling degree days 13 14  
Year to date cooling degree days 24 50  
Growing Degree Days 17 (Base 50)    
Moisture  
Dew Point 35 °F    
Average Humidity 36    
Maximum Humidity 57    
Minimum Humidity 15    
Precipitation  
Precipitation 0.00 in 0.01 in 1.42 in (2001)
Month to date precipitation 0.00 0.07  
Year to date precipitation 1.03 0.83  
Sea Level Pressure  
Sea Level Pressure 29.93 in    
Wind  
Wind Speed 6 mph (WNW)    
Max Wind Speed 14 mph    
Max Gust Speed 20 mph    
Visibility 10 miles    
Events      
T = Trace of Precipitation, MM = Missing Value Source: NWS Daily Summary

Daily Weather History Graph

Daily Weather History Graph

Search for Another Location

Airport or City:

Trip Planner

Search our weather history database for the weather conditions in past years. The results will help you decide how hot, cold, wet, or windy it might be!

Date:

Astronomy

Mar. 06, 2013 Rise Set
Actual Time 6:59 AM MST 6:39 PM MST
Civil Twilight 6:35 AM MST 7:04 PM MST
Nautical Twilight 6:06 AM MST 7:33 PM MST
Astronomical Twilight 5:38 AM MST 8:01 PM MST
Moon 2:59 AM MST (3/6) 1:39 PM MST (3/6)
Length of Visible Light 12h 29m
Length of Day
11h 40m
Waning Crescent, 29% of the Moon is Illuminated
Mar 6
Waning Crescent
Mar 11
New
Mar 19
First Quarter
Mar 27
Full
Apr 2
Last Quarter

Hourly Weather History & Observations

Time (MST) Temp. Dew Point Humidity Pressure Visibility Wind Dir Wind Speed Gust Speed Precip Events Conditions
12:55 AM 60.1 °F 39.0 °F 46% 29.95 in 10.0 mi Calm Calm - N/A   Mostly Cloudy
1:55 AM 60.1 °F 41.0 °F 49% 29.94 in 10.0 mi SSE 9.2 mph - N/A   Mostly Cloudy
2:55 AM 61.0 °F 43.0 °F 52% 29.93 in 10.0 mi Calm Calm - N/A   Mostly Cloudy
3:55 AM 57.0 °F 42.1 °F 57% 29.93 in 10.0 mi NW 6.9 mph - N/A   Scattered Clouds
4:55 AM 57.0 °F 42.1 °F 57% 29.96 in 10.0 mi WNW 4.6 mph - N/A   Partly Cloudy
5:00 AM - - N/A% - - North - - N/A   Unknown
5:55 AM 57.9 °F 35.1 °F 42% 29.96 in 10.0 mi NW 5.8 mph - N/A   Clear
6:55 AM 57.0 °F 36.0 °F 45% 29.98 in 10.0 mi NW 6.9 mph - N/A   Scattered Clouds
7:55 AM 59.0 °F 37.9 °F 46% 29.99 in 10.0 mi NW 10.4 mph - N/A   Mostly Cloudy
8:55 AM 62.1 °F 37.0 °F 39% 30.01 in 10.0 mi NW 11.5 mph - N/A   Mostly Cloudy
9:55 AM 66.0 °F 37.0 °F 34% 30.01 in 10.0 mi NW 11.5 mph - N/A   Mostly Cloudy
10:55 AM 69.1 °F 35.1 °F 29% 30.00 in 10.0 mi NNW 4.6 mph - N/A   Scattered Clouds
11:00 AM - - N/A% - - North - - N/A   Unknown
11:55 AM 72.0 °F 34.0 °F 25% 29.99 in 10.0 mi WNW 9.2 mph - N/A   Partly Cloudy
12:55 PM 73.0 °F 30.0 °F 20% 29.96 in 10.0 mi WNW 4.6 mph - N/A   Partly Cloudy
1:55 PM 75.9 °F 28.9 °F 18% 29.93 in 10.0 mi Calm Calm - N/A   Partly Cloudy
2:55 PM 77.0 °F 28.0 °F 17% 29.91 in 10.0 mi WSW 6.9 mph - N/A   Partly Cloudy
3:55 PM 77.0 °F 27.0 °F 16% 29.88 in 10.0 mi Calm Calm - N/A   Partly Cloudy
4:55 PM 77.0 °F 28.0 °F 17% 29.87 in 10.0 mi WSW 4.6 mph - N/A   Partly Cloudy
5:55 PM 75.9 °F 28.0 °F 17% 29.86 in 10.0 mi WSW 4.6 mph - N/A   Partly Cloudy
6:55 PM 71.1 °F 33.1 °F 25% 29.86 in 10.0 mi WSW 5.8 mph - N/A   Partly Cloudy
7:55 PM 66.9 °F 33.1 °F 28% 29.87 in 10.0 mi South 3.5 mph - N/A   Partly Cloudy
8:07 PM - - N/A% - - North - - N/A   Unknown
8:55 PM 66.0 °F 34.0 °F 30% 29.88 in 10.0 mi West 8.1 mph - N/A   Partly Cloudy
9:55 PM 62.1 °F 39.0 °F 43% 29.89 in 10.0 mi Calm Calm - N/A   Partly Cloudy
10:55 PM 63.0 °F 37.0 °F 38% 29.90 in 10.0 mi WNW 6.9 mph - N/A   Partly Cloudy
11:55 PM 61.0 °F 37.0 °F 41% 29.89 in 10.0 mi WNW 6.9 mph - N/A   Partly Cloudy